map of ABD home
Great Circle Mapper logo
ABD - Airport
Location
City:  Abadan, Iran
ICAO / IATA:OIAA / ABD

Details
Type:Airport (Aerodrome, Airfield)
Use:Public/Civil
Latitude:3021'54"N (30.365000)
Longitude:4813'59"E (48.233056)
Elevation:19 ft (6 m)
Variation:3.63E (WMM2015 magnetic declination)
0.05 annual change
Runways:2
Longest:10174 × 148 ft (3101 × 45 m), paved

Time
Time Zone:UTC+3:30 (DST+4:30)
Local Time:

Weather
METAR:OIAA 030200Z 30004KT CAVOK 30/13 Q1002
TAF:OIAA 022300Z 0300/0406 32005MPS 7000 FEW040
TEMPO 0300/0303 4000 DU FEW035
BECMG 0304/0306 34005MPS 7000 FEW040

Related Locations
Nearby:
Farthest:GMR: 11895 mi / 19143 km
Mangareva [Totegegie], Gambier Islands, PF

Find:

   beyond  
but within

Other Information
Maps:
NOTAMs:
Links:
Sources:

  
flag of Iran   

Sectional Chart

Flight Planning
at skyvector.com

Satellite Image

Google Maps Satellite view

 

Copyright © 2004-2015 Karl L. Swartz. All rights reserved.
The Great Circle Mapper name and logo are trademarks of the Great Circle Mapper.
All other trademarks mentioned herein belong to their respective owners.
Please see credits for attibutions and further copyright information.

  Follow gcmap on Facebook Follow gcmap on Twitter Follow gcmap on Google+

hCard Microformat

Geo Microformat